Location: Firdgum
(53.2488°N, 5.5615°E)
Time: 16:25:54
(UTC+00:00)

Cosmos 1833 Rocket - Pass Details

Date: 08 December 2019
Orbit: 831 x 841 km, 71.0° (Epoch: 27 January)

Event Time Altitude Azimuth Distance (km) Brightness Sun altitude
Exits shadow 05:47:17 - 338° (NNW) 2,574 4.9 -15.4°
Reaches altitude 10° 05:47:40 10° 340° (NNW) 2,463 4.8 -15.4°
Maximum altitude 05:52:14 25° 34° (NE) 1,660 4.4 -14.7°
Drops below altitude 10° 05:56:48 10° 88° (E) 2,460 6.3 -14.1°
Sets 05:59:42 0° 102° (ESE) 3,394 7.8 -13.7°
